TimeEDT,TemperatureF,Dew PointF,Humidity,Sea Level PressureIn,VisibilityMPH,Wind Direction,Wind SpeedMPH,Gust SpeedMPH,PrecipitationIn,Events,Conditions,WindDirDegrees,DateUTC
12:45 AM,75.2,71.6,89,29.85,10.0,Calm,Calm,-,N/A,,Mostly Cloudy,0,2013-09-01 04:45:00
1:45 AM,75.2,71.6,89,29.83,10.0,Calm,Calm,-,N/A,,Scattered Clouds,0,2013-09-01 05:45:00
2:45 AM,73.4,71.6,94,29.83,10.0,Calm,Calm,-,N/A,,Scattered Clouds,0,2013-09-01 06:45:00
3:45 AM,73.4,71.6,94,29.83,10.0,Calm,Calm,-,N/A,,Scattered Clouds,0,2013-09-01 07:45:00
4:45 AM,73.4,71.6,94,29.83,5.0,Calm,Calm,-,N/A,,Mostly Cloudy,0,2013-09-01 08:45:00
5:45 AM,73.4,71.6,94,29.85,5.0,Calm,Calm,-,N/A,,Mostly Cloudy,0,2013-09-01 09:45:00
7:45 AM,75.2,73.4,94,29.87,5.0,Calm,Calm,-,N/A,,Mostly Cloudy,0,2013-09-01 11:45:00
8:45 AM,75.2,73.4,94,29.86,3.0,Calm,Calm,-,N/A,,Mostly Cloudy,0,2013-09-01 12:45:00
9:45 AM,77.0,73.4,89,29.86,4.0,Calm,Calm,-,N/A,,Mostly Cloudy,0,2013-09-01 13:45:00
10:45 AM,78.8,73.4,83,29.87,5.0,West,5.8,-,N/A,,Overcast,280,2013-09-01 14:45:00
11:45 AM,78.8,73.4,83,29.87,4.0,West,5.8,-,N/A,,Overcast,280,2013-09-01 15:45:00
12:45 PM,78.8,73.4,83,29.86,5.0,Variable,5.8,-,N/A,,Overcast,0,2013-09-01 16:45:00
1:45 PM,78.8,73.4,83,29.86,7.0,Variable,5.8,-,N/A,,Mostly Cloudy,0,2013-09-01 17:45:00
2:45 PM,80.6,73.4,79,29.84,7.0,ESE,6.9,-,N/A,,Mostly Cloudy,120,2013-09-01 18:45:00
3:45 PM,73.4,69.8,88,29.85,2.0,SW,11.5,-,N/A,Rain,Rain,230,2013-09-01 19:45:00
4:45 PM,77.0,71.6,83,29.83,10.0,Calm,Calm,-,N/A,,Scattered Clouds,0,2013-09-01 20:45:00
6:45 PM,77.0,75.2,94,29.80,6.0,Variable,5.8,-,N/A,,Haze,0,2013-09-01 22:45:00
7:45 PM,77.0,75.2,94,29.82,5.0,Variable,3.5,-,N/A,,Haze,0,2013-09-01 23:45:00
8:45 PM,75.2,73.4,94,29.85,5.0,Calm,Calm,-,N/A,,Haze,0,2013-09-02 00:45:00
11:45 PM,75.2,73.4,94,29.84,5.0,Calm,Calm,-,N/A,,Mostly Cloudy,0,2013-09-02 03:45:00